Year,Month,Day,Hour,Minute,Value (Times are PST for temperature in C)
2012,09,23,00,00,10.10
2012,09,23,00,01,10.10
2012,09,23,00,02,10.10
2012,09,23,00,03,10.10
2012,09,23,00,04,10.10
2012,09,23,00,05,10.10
2012,09,23,00,06,10.10
2012,09,23,00,07,10.10
2012,09,23,00,08,10.10
2012,09,23,00,09,10.00
2012,09,23,00,10,9.90
2012,09,23,00,11,9.90
2012,09,23,00,12,9.90
2012,09,23,00,13,9.90
2012,09,23,00,14,9.90
2012,09,23,00,15,9.90
2012,09,23,00,16,9.90
2012,09,23,00,17,9.80
2012,09,23,00,18,9.80
2012,09,23,00,19,9.70
2012,09,23,00,20,9.70
2012,09,23,00,21,9.70
2012,09,23,00,22,9.70
2012,09,23,00,23,9.70
2012,09,23,00,24,9.70
2012,09,23,00,25,9.70
2012,09,23,00,26,9.70
2012,09,23,00,27,9.70
2012,09,23,00,28,9.70
2012,09,23,00,29,9.70
2012,09,23,00,30,9.70
2012,09,23,00,31,9.80
2012,09,23,00,32,9.80
2012,09,23,00,33,9.80
2012,09,23,00,34,9.90
2012,09,23,00,35,9.90
2012,09,23,00,36,9.90
2012,09,23,00,37,9.90
2012,09,23,00,38,9.90
2012,09,23,00,39,9.90
2012,09,23,00,40,9.90
2012,09,23,00,41,9.90
2012,09,23,00,42,9.90
2012,09,23,00,43,9.90
2012,09,23,00,44,9.80
2012,09,23,00,45,9.80
2012,09,23,00,46,9.80
2012,09,23,00,47,9.80
2012,09,23,00,48,9.80
2012,09,23,00,49,9.80
2012,09,23,00,50,9.80
2012,09,23,00,51,9.80
2012,09,23,00,52,9.80
2012,09,23,00,53,9.80
2012,09,23,00,54,9.80
2012,09,23,00,55,9.80
2012,09,23,00,56,9.70
2012,09,23,00,57,9.70
2012,09,23,00,58,9.70
2012,09,23,00,59,9.70
2012,09,23,01,00,9.70
2012,09,23,01,01,9.70
2012,09,23,01,02,9.70
2012,09,23,01,03,9.70
2012,09,23,01,04,9.70
2012,09,23,01,05,9.70
2012,09,23,01,06,9.70
2012,09,23,01,07,9.70
2012,09,23,01,08,9.70
2012,09,23,01,09,9.70
2012,09,23,01,10,9.70
2012,09,23,01,11,9.70
2012,09,23,01,12,9.70
2012,09,23,01,13,9.70
2012,09,23,01,14,9.70
2012,09,23,01,15,9.70
2012,09,23,01,16,9.70
2012,09,23,01,17,9.70
2012,09,23,01,18,9.70
2012,09,23,01,19,9.70
2012,09,23,01,20,9.70
2012,09,23,01,21,9.70
2012,09,23,01,22,9.70
2012,09,23,01,23,9.70
2012,09,23,01,24,9.70
2012,09,23,01,25,9.70
2012,09,23,01,26,9.70
2012,09,23,01,27,9.60
2012,09,23,01,28,9.60
2012,09,23,01,29,9.60
2012,09,23,01,30,9.60
2012,09,23,01,31,9.60
2012,09,23,01,32,9.60
2012,09,23,01,33,9.60
2012,09,23,01,34,9.60
2012,09,23,01,35,9.60
2012,09,23,01,36,9.50
2012,09,23,01,37,9.50
2012,09,23,01,38,9.40
2012,09,23,01,39,9.40
2012,09,23,01,40,9.30
2012,09,23,01,41,9.30
2012,09,23,01,42,9.30
2012,09,23,01,43,9.20
2012,09,23,01,44,9.20
2012,09,23,01,45,9.20
2012,09,23,01,46,9.20
2012,09,23,01,47,9.20
2012,09,23,01,48,9.20
2012,09,23,01,49,9.20
2012,09,23,01,50,9.20
2012,09,23,01,51,9.20
2012,09,23,01,52,9.20
2012,09,23,01,53,9.10
2012,09,23,01,54,9.10
2012,09,23,01,55,9.10
2012,09,23,01,56,9.10
2012,09,23,01,57,9.10
2012,09,23,01,58,9.10
2012,09,23,01,59,9.10
2012,09,23,02,00,9.10
2012,09,23,02,01,9.10
2012,09,23,02,02,9.10
2012,09,23,02,03,9.10
2012,09,23,02,04,9.10
2012,09,23,02,05,9.10
2012,09,23,02,06,9.20
2012,09,23,02,07,9.20
2012,09,23,02,08,9.20
2012,09,23,02,09,9.20
2012,09,23,02,10,9.10
2012,09,23,02,11,9.10
2012,09,23,02,12,9.10
2012,09,23,02,13,9.10
2012,09,23,02,14,9.10
2012,09,23,02,15,9.10
2012,09,23,02,16,9.00
2012,09,23,02,17,9.00
2012,09,23,02,18,9.00
2012,09,23,02,19,9.00
2012,09,23,02,20,9.00
2012,09,23,02,21,9.00
2012,09,23,02,22,9.00
2012,09,23,02,23,9.00
2012,09,23,02,24,9.10
2012,09,23,02,25,9.10
2012,09,23,02,26,9.10
2012,09,23,02,27,9.10
2012,09,23,02,28,9.10
2012,09,23,02,29,9.10
2012,09,23,02,30,9.10
2012,09,23,02,31,9.10
2012,09,23,02,32,9.10
2012,09,23,02,33,9.10
2012,09,23,02,34,9.10
2012,09,23,02,35,9.10
2012,09,23,02,36,9.00
2012,09,23,02,37,9.00
2012,09,23,02,38,9.00
2012,09,23,02,39,9.00
2012,09,23,02,40,8.90
2012,09,23,02,41,8.90
2012,09,23,02,42,8.90
2012,09,23,02,43,8.90
2012,09,23,02,44,8.90
2012,09,23,02,45,8.80
2012,09,23,02,46,8.80
2012,09,23,02,47,8.80
2012,09,23,02,48,8.80
2012,09,23,02,49,8.80
2012,09,23,02,50,8.80
2012,09,23,02,51,8.80
2012,09,23,02,52,8.80
2012,09,23,02,53,8.70
2012,09,23,02,54,8.70
2012,09,23,02,55,8.70
2012,09,23,02,56,8.70
2012,09,23,02,57,8.70
2012,09,23,02,58,8.70
2012,09,23,02,59,8.70
2012,09,23,03,00,8.70
2012,09,23,03,01,8.70
2012,09,23,03,02,8.70
2012,09,23,03,03,8.60
2012,09,23,03,04,8.60
2012,09,23,03,05,8.60
2012,09,23,03,06,8.60
2012,09,23,03,07,8.50
2012,09,23,03,08,8.50
2012,09,23,03,09,8.40
2012,09,23,03,10,8.40
2012,09,23,03,11,8.40
2012,09,23,03,12,8.40
2012,09,23,03,13,8.40
2012,09,23,03,14,8.40
2012,09,23,03,15,8.40
2012,09,23,03,16,8.40
2012,09,23,03,17,8.40
2012,09,23,03,18,8.40
2012,09,23,03,19,8.40
2012,09,23,03,20,8.40
2012,09,23,03,21,8.40
2012,09,23,03,22,8.40
2012,09,23,03,23,8.50
2012,09,23,03,24,8.50
2012,09,23,03,25,8.50
2012,09,23,03,26,8.50
2012,09,23,03,27,8.50
2012,09,23,03,28,8.50
2012,09,23,03,29,8.50
2012,09,23,03,30,8.50
2012,09,23,03,31,8.50
2012,09,23,03,32,8.50
2012,09,23,03,33,8.50
2012,09,23,03,34,8.50
2012,09,23,03,35,8.50
2012,09,23,03,36,8.40
2012,09,23,03,37,8.40
2012,09,23,03,38,8.40
2012,09,23,03,39,8.40
2012,09,23,03,40,8.40
2012,09,23,03,41,8.40
2012,09,23,03,42,8.40
2012,09,23,03,43,8.40
2012,09,23,03,44,8.40
2012,09,23,03,45,8.40
2012,09,23,03,46,8.40
2012,09,23,03,47,8.40
2012,09,23,03,48,8.40
2012,09,23,03,49,8.40
2012,09,23,03,50,8.40
2012,09,23,03,51,8.40
2012,09,23,03,52,8.40
2012,09,23,03,53,8.40
2012,09,23,03,54,8.30
2012,09,23,03,55,8.30
2012,09,23,03,56,8.30
2012,09,23,03,57,8.30
2012,09,23,03,58,8.30
2012,09,23,03,59,8.20
2012,09,23,04,00,8.20
2012,09,23,04,01,8.20
2012,09,23,04,02,8.20
2012,09,23,04,03,8.20
2012,09,23,04,04,8.20
2012,09,23,04,05,8.20
2012,09,23,04,06,8.20
2012,09,23,04,07,8.20
2012,09,23,04,08,8.20
2012,09,23,04,09,8.20
2012,09,23,04,10,8.20
2012,09,23,04,11,8.10
2012,09,23,04,12,8.10
2012,09,23,04,13,8.10
2012,09,23,04,14,8.10
2012,09,23,04,15,8.10
2012,09,23,04,16,8.10
2012,09,23,04,17,8.10
2012,09,23,04,18,8.10
2012,09,23,04,19,8.10
2012,09,23,04,20,8.10
2012,09,23,04,21,8.10
2012,09,23,04,22,8.10
2012,09,23,04,23,8.10
2012,09,23,04,24,8.10
2012,09,23,04,25,8.10
2012,09,23,04,26,8.10
2012,09,23,04,27,8.10
2012,09,23,04,28,8.10
2012,09,23,04,29,8.10
2012,09,23,04,30,8.10
2012,09,23,04,31,8.10
2012,09,23,04,32,8.10
2012,09,23,04,33,8.10
2012,09,23,04,34,8.10
2012,09,23,04,35,8.10
2012,09,23,04,36,8.10
2012,09,23,04,37,8.10
2012,09,23,04,38,8.10
2012,09,23,04,39,8.10
2012,09,23,04,40,8.10
2012,09,23,04,41,8.10
2012,09,23,04,42,8.10
2012,09,23,04,43,8.10
2012,09,23,04,44,8.00
2012,09,23,04,45,8.00
2012,09,23,04,46,8.00
2012,09,23,04,47,8.00
2012,09,23,04,48,7.90
2012,09,23,04,49,7.90
2012,09,23,04,50,7.90
2012,09,23,04,51,7.90
2012,09,23,04,52,7.90
2012,09,23,04,53,7.90
2012,09,23,04,54,7.90
2012,09,23,04,55,7.90
2012,09,23,04,56,7.90
2012,09,23,04,57,7.90
2012,09,23,04,58,7.90
2012,09,23,04,59,8.00
2012,09,23,05,00,8.00
2012,09,23,05,01,7.90
2012,09,23,05,02,7.90
2012,09,23,05,03,7.90
2012,09,23,05,04,7.90
2012,09,23,05,05,7.90
2012,09,23,05,06,7.90
2012,09,23,05,07,7.80
2012,09,23,05,08,7.80
2012,09,23,05,09,7.80
2012,09,23,05,10,7.80
2012,09,23,05,11,7.80
2012,09,23,05,12,7.80
2012,09,23,05,13,7.80
2012,09,23,05,14,7.80
2012,09,23,05,15,7.80
2012,09,23,05,16,7.80
2012,09,23,05,17,7.80
2012,09,23,05,18,7.80
2012,09,23,05,19,7.80
2012,09,23,05,20,7.80
2012,09,23,05,21,7.80
2012,09,23,05,22,7.80
2012,09,23,05,23,7.80
2012,09,23,05,24,7.80
2012,09,23,05,25,7.80
2012,09,23,05,26,7.80
2012,09,23,05,27,7.70
2012,09,23,05,28,7.70
2012,09,23,05,29,7.60
2012,09,23,05,30,7.60
2012,09,23,05,31,7.60
2012,09,23,05,32,7.60
2012,09,23,05,33,7.60
2012,09,23,05,34,7.60
2012,09,23,05,35,7.60
2012,09,23,05,36,7.60
2012,09,23,05,37,7.60
2012,09,23,05,38,7.70
2012,09,23,05,39,7.70
2012,09,23,05,40,7.70
2012,09,23,05,41,7.80
2012,09,23,05,42,7.80
2012,09,23,05,43,7.80
2012,09,23,05,44,7.80
2012,09,23,05,45,7.80
2012,09,23,05,46,7.80
2012,09,23,05,47,7.80
2012,09,23,05,48,7.80
2012,09,23,05,49,7.80
2012,09,23,05,50,7.80
2012,09,23,05,51,7.80
2012,09,23,05,52,7.80
2012,09,23,05,53,7.80
2012,09,23,05,54,7.80
2012,09,23,05,55,7.80
2012,09,23,05,56,7.80
2012,09,23,05,57,7.80
2012,09,23,05,58,7.70
2012,09,23,05,59,7.80
2012,09,23,06,00,7.80
2012,09,23,06,01,7.70
2012,09,23,06,02,7.70
2012,09,23,06,03,7.70
2012,09,23,06,04,7.70
2012,09,23,06,05,7.70
2012,09,23,06,06,7.70
2012,09,23,06,07,7.70
2012,09,23,06,08,7.70
2012,09,23,06,09,7.70
2012,09,23,06,10,7.70
2012,09,23,06,11,7.60
2012,09,23,06,12,7.60
2012,09,23,06,13,7.60
2012,09,23,06,14,7.60
2012,09,23,06,15,7.60
2012,09,23,06,16,7.70
2012,09,23,06,17,7.70
2012,09,23,06,18,7.70
2012,09,23,06,19,7.70
2012,09,23,06,20,7.70
2012,09,23,06,21,7.70
2012,09,23,06,22,7.70
2012,09,23,06,23,7.70
2012,09,23,06,24,7.80
2012,09,23,06,25,7.80
2012,09,23,06,26,7.80
2012,09,23,06,27,7.80
2012,09,23,06,28,7.80
2012,09,23,06,29,7.80
2012,09,23,06,30,7.80
2012,09,23,06,31,7.80
2012,09,23,06,32,7.80
2012,09,23,06,33,7.80
2012,09,23,06,34,7.80
2012,09,23,06,35,7.80
2012,09,23,06,36,7.80
2012,09,23,06,37,7.80
2012,09,23,06,38,7.80
2012,09,23,06,39,7.80
2012,09,23,06,40,7.80
2012,09,23,06,41,7.80
2012,09,23,06,42,7.80
2012,09,23,06,43,7.80
2012,09,23,06,44,7.80
2012,09,23,06,45,7.80
2012,09,23,06,46,7.70
2012,09,23,06,47,7.70
2012,09,23,06,48,7.70
2012,09,23,06,49,7.70
2012,09,23,06,50,7.70
2012,09,23,06,51,7.70
2012,09,23,06,52,7.70
2012,09,23,06,53,7.80
2012,09,23,06,54,7.80
2012,09,23,06,55,7.80
2012,09,23,06,56,7.80
2012,09,23,06,57,7.70
2012,09,23,06,58,7.70
2012,09,23,06,59,7.70
2012,09,23,07,00,7.70
2012,09,23,07,01,7.70
2012,09,23,07,02,7.70
2012,09,23,07,03,7.70
2012,09,23,07,04,7.70
2012,09,23,07,05,7.70
2012,09,23,07,06,7.70
2012,09,23,07,07,7.70
2012,09,23,07,08,7.70
2012,09,23,07,09,7.70
2012,09,23,07,10,7.70
2012,09,23,07,11,7.70
2012,09,23,07,12,7.70
2012,09,23,07,13,7.70
2012,09,23,07,14,7.60
2012,09,23,07,15,7.60
2012,09,23,07,16,7.60
2012,09,23,07,17,7.60
2012,09,23,07,18,7.60
2012,09,23,07,19,7.60
2012,09,23,07,20,7.50
2012,09,23,07,21,7.50
2012,09,23,07,22,7.50
2012,09,23,07,23,7.50
2012,09,23,07,24,7.50
2012,09,23,07,25,7.50
2012,09,23,07,26,7.50
2012,09,23,07,27,7.50
2012,09,23,07,28,7.60
2012,09,23,07,29,7.60
2012,09,23,07,30,7.60
2012,09,23,07,31,7.50
2012,09,23,07,32,7.50
2012,09,23,07,33,7.50
2012,09,23,07,34,7.50
2012,09,23,07,35,7.40
2012,09,23,07,36,7.40
2012,09,23,07,37,7.40
2012,09,23,07,38,7.40
2012,09,23,07,39,7.40
2012,09,23,07,40,7.40
2012,09,23,07,41,7.40
2012,09,23,07,42,7.50
2012,09,23,07,43,7.50
2012,09,23,07,44,7.60
2012,09,23,07,45,7.60
2012,09,23,07,46,7.70
2012,09,23,07,47,7.70
2012,09,23,07,48,7.70
2012,09,23,07,49,7.80
2012,09,23,07,50,7.80
2012,09,23,07,51,7.80
2012,09,23,07,52,7.80
2012,09,23,07,53,7.80
2012,09,23,07,54,7.80
2012,09,23,07,55,7.80
2012,09,23,07,56,7.80
2012,09,23,07,57,7.90
2012,09,23,07,58,7.90
2012,09,23,07,59,8.00
2012,09,23,08,00,8.00
2012,09,23,08,01,8.00
2012,09,23,08,02,8.10
2012,09,23,08,03,8.10
2012,09,23,08,04,8.20
2012,09,23,08,05,8.20
2012,09,23,08,06,8.20
2012,09,23,08,07,8.20
2012,09,23,08,08,8.30
2012,09,23,08,09,8.30
2012,09,23,08,10,8.30
2012,09,23,08,11,8.40
2012,09,23,08,12,8.40
2012,09,23,08,13,8.40
2012,09,23,08,14,8.50
2012,09,23,08,15,8.50
2012,09,23,08,16,8.50
2012,09,23,08,17,8.60
2012,09,23,08,18,8.60
2012,09,23,08,19,8.60
2012,09,23,08,20,8.70
2012,09,23,08,21,8.70
2012,09,23,08,22,8.70
2012,09,23,08,23,8.70
2012,09,23,08,24,8.80
2012,09,23,08,25,8.80
2012,09,23,08,26,8.80
2012,09,23,08,27,8.90
2012,09,23,08,28,8.90
2012,09,23,08,29,9.00
2012,09,23,08,30,9.00
2012,09,23,08,31,9.10
2012,09,23,08,32,9.10
2012,09,23,08,33,9.20
2012,09,23,08,34,9.20
2012,09,23,08,35,9.20
2012,09,23,08,36,9.30
2012,09,23,08,37,9.30
2012,09,23,08,38,9.30
2012,09,23,08,39,9.40
2012,09,23,08,40,9.40
2012,09,23,08,41,9.50
2012,09,23,08,42,9.50
2012,09,23,08,43,9.60
2012,09,23,08,44,9.60
2012,09,23,08,45,9.70
2012,09,23,08,46,9.70
2012,09,23,08,47,9.70
2012,09,23,08,48,9.80
2012,09,23,08,49,9.80
2012,09,23,08,50,9.90
2012,09,23,08,51,9.90
2012,09,23,08,52,9.90
2012,09,23,08,53,10.00
2012,09,23,08,54,10.10
2012,09,23,08,55,10.10
2012,09,23,08,56,10.20
2012,09,23,08,57,10.30
2012,09,23,08,58,10.40
2012,09,23,08,59,10.40
2012,09,23,09,00,10.40
2012,09,23,09,01,10.60
2012,09,23,09,02,10.60
2012,09,23,09,03,10.60
2012,09,23,09,04,10.70
2012,09,23,09,05,10.80
2012,09,23,09,06,10.80
2012,09,23,09,07,10.90
2012,09,23,09,08,10.90
2012,09,23,09,09,11.10
2012,09,23,09,10,11.10
2012,09,23,09,11,11.10
2012,09,23,09,12,11.20
2012,09,23,09,13,11.30
2012,09,23,09,14,11.30
2012,09,23,09,15,11.40
2012,09,23,09,16,11.40
2012,09,23,09,17,11.40
2012,09,23,09,18,11.50
2012,09,23,09,19,11.60
2012,09,23,09,20,11.60
2012,09,23,09,21,11.60
2012,09,23,09,22,11.70
2012,09,23,09,23,11.70
2012,09,23,09,24,11.80
2012,09,23,09,25,11.80
2012,09,23,09,26,11.80
2012,09,23,09,27,11.90
2012,09,23,09,28,12.00
2012,09,23,09,29,12.00
2012,09,23,09,30,12.10
2012,09,23,09,31,12.10
2012,09,23,09,32,12.20
2012,09,23,09,33,12.30
2012,09,23,09,34,12.30
2012,09,23,09,35,12.40
2012,09,23,09,36,12.40
2012,09,23,09,37,12.50
2012,09,23,09,38,12.50
2012,09,23,09,39,12.60
2012,09,23,09,40,12.60
2012,09,23,09,41,12.70
2012,09,23,09,42,12.80
2012,09,23,09,43,12.80
2012,09,23,09,44,12.90
2012,09,23,09,45,12.90
2012,09,23,09,46,12.90
2012,09,23,09,47,13.00
2012,09,23,09,48,13.00
2012,09,23,09,49,13.00
2012,09,23,09,50,13.10
2012,09,23,09,51,13.10
2012,09,23,09,52,13.20
2012,09,23,09,53,13.20
2012,09,23,09,54,13.30
2012,09,23,09,55,13.30
2012,09,23,09,56,13.30
2012,09,23,09,57,13.40
2012,09,23,09,58,13.50
2012,09,23,09,59,13.50
2012,09,23,10,00,13.60
2012,09,23,10,01,13.60
2012,09,23,10,02,13.70
2012,09,23,10,03,13.70
2012,09,23,10,04,13.70
2012,09,23,10,05,13.80
2012,09,23,10,06,13.80
2012,09,23,10,07,13.80
2012,09,23,10,08,13.90
2012,09,23,10,09,13.90
2012,09,23,10,10,14.00
2012,09,23,10,11,14.00
2012,09,23,10,12,14.00
2012,09,23,10,13,14.00
2012,09,23,10,14,14.10
2012,09,23,10,15,14.10
2012,09,23,10,16,14.20
2012,09,23,10,17,14.20
2012,09,23,10,18,14.20
2012,09,23,10,19,14.20
2012,09,23,10,20,14.10
2012,09,23,10,21,14.00
2012,09,23,10,22,13.90
2012,09,23,10,23,13.80
2012,09,23,10,24,13.80
2012,09,23,10,25,13.70
2012,09,23,10,26,13.70
2012,09,23,10,27,13.70
2012,09,23,10,28,13.60
2012,09,23,10,29,13.60
2012,09,23,10,30,13.50
2012,09,23,10,31,13.50
2012,09,23,10,32,13.50
2012,09,23,10,33,13.40
2012,09,23,10,34,13.40
2012,09,23,10,35,13.30
2012,09,23,10,36,13.30
2012,09,23,10,37,13.40
2012,09,23,10,38,13.40
2012,09,23,10,39,13.40
2012,09,23,10,40,13.40
2012,09,23,10,41,13.40
2012,09,23,10,42,13.30
2012,09,23,10,43,13.30
2012,09,23,10,44,13.30
2012,09,23,10,45,13.30
2012,09,23,10,46,13.30
2012,09,23,10,47,13.30
2012,09,23,10,48,13.30
2012,09,23,10,49,13.30
2012,09,23,10,50,13.20
2012,09,23,10,51,13.20
2012,09,23,10,52,13.20
2012,09,23,10,53,13.20
2012,09,23,10,54,13.10
2012,09,23,10,55,13.10
2012,09,23,10,56,13.10
2012,09,23,10,57,13.10
2012,09,23,10,58,13.10
2012,09,23,10,59,13.10
2012,09,23,11,00,13.10
2012,09,23,11,01,13.00
2012,09,23,11,02,13.00
2012,09,23,11,03,13.00
2012,09,23,11,04,12.90
2012,09,23,11,05,12.90
2012,09,23,11,06,12.90
2012,09,23,11,07,13.00
2012,09,23,11,08,13.00
2012,09,23,11,09,13.00
2012,09,23,11,10,13.00
2012,09,23,11,11,13.00
2012,09,23,11,12,13.00
2012,09,23,11,13,13.00
2012,09,23,11,14,13.00
2012,09,23,11,15,13.00
2012,09,23,11,16,13.00
2012,09,23,11,17,13.10
2012,09,23,11,18,13.10
2012,09,23,11,19,13.10
2012,09,23,11,20,13.10
2012,09,23,11,21,13.20
2012,09,23,11,22,13.20
2012,09,23,11,23,13.20
2012,09,23,11,24,13.30
2012,09,23,11,25,13.30
2012,09,23,11,26,13.30
2012,09,23,11,27,13.30
2012,09,23,11,28,13.40
2012,09,23,11,29,13.50
2012,09,23,11,30,13.50
2012,09,23,11,31,13.60
2012,09,23,11,32,13.60
2012,09,23,11,33,13.70
2012,09,23,11,34,13.70
2012,09,23,11,35,13.60
2012,09,23,11,36,13.60
2012,09,23,11,37,13.60
2012,09,23,11,38,13.60
2012,09,23,11,39,13.60
2012,09,23,11,40,13.60
2012,09,23,11,41,13.70
2012,09,23,11,42,13.70
2012,09,23,11,43,13.70
2012,09,23,11,44,13.80
2012,09,23,11,45,13.90
2012,09,23,11,46,13.90
2012,09,23,11,47,14.00
2012,09,23,11,48,14.00
2012,09,23,11,49,14.10
2012,09,23,11,50,14.20
2012,09,23,11,51,14.20
2012,09,23,11,52,14.20
2012,09,23,11,53,14.30
2012,09,23,11,54,14.40
2012,09,23,11,55,14.50
2012,09,23,11,56,14.50
2012,09,23,11,57,14.60
2012,09,23,11,58,14.60
2012,09,23,11,59,14.70
2012,09,23,12,00,14.80
2012,09,23,12,01,14.80
2012,09,23,12,02,14.80
2012,09,23,12,03,14.80
2012,09,23,12,04,14.90
2012,09,23,12,05,15.00
2012,09,23,12,06,15.00
2012,09,23,12,07,15.10
2012,09,23,12,08,15.20
2012,09,23,12,09,15.20
2012,09,23,12,10,15.20
2012,09,23,12,11,15.20
2012,09,23,12,12,15.10
2012,09,23,12,13,15.10
2012,09,23,12,14,15.10
2012,09,23,12,15,15.10
2012,09,23,12,16,15.10
2012,09,23,12,17,15.10
2012,09,23,12,18,15.10
2012,09,23,12,19,15.00
2012,09,23,12,20,15.00
2012,09,23,12,21,15.10
2012,09,23,12,22,15.10
2012,09,23,12,23,15.10
2012,09,23,12,24,15.20
2012,09,23,12,25,15.20
2012,09,23,12,26,15.30
2012,09,23,12,27,15.30
2012,09,23,12,28,15.30
2012,09,23,12,29,15.50
2012,09,23,12,30,15.50
2012,09,23,12,31,15.70
2012,09,23,12,32,15.80
2012,09,23,12,33,15.80
2012,09,23,12,34,15.80
2012,09,23,12,35,15.90
2012,09,23,12,36,15.90
2012,09,23,12,37,15.90
2012,09,23,12,38,15.90
2012,09,23,12,39,15.90
2012,09,23,12,40,16.10
2012,09,23,12,41,16.10
2012,09,23,12,42,16.00
2012,09,23,12,43,15.90
2012,09,23,12,44,15.90
2012,09,23,12,45,15.90
2012,09,23,12,46,15.90
2012,09,23,12,47,16.00
2012,09,23,12,48,16.10
2012,09,23,12,49,16.10
2012,09,23,12,50,16.20
2012,09,23,12,51,16.30
2012,09,23,12,52,16.30
2012,09,23,12,53,16.30
2012,09,23,12,54,16.30
2012,09,23,12,55,16.30
2012,09,23,12,56,16.30
2012,09,23,12,57,16.30
2012,09,23,12,58,16.40
2012,09,23,12,59,16.40
2012,09,23,13,00,16.40
2012,09,23,13,01,16.40
2012,09,23,13,02,16.50
2012,09,23,13,03,16.40
2012,09,23,13,04,16.40
2012,09,23,13,05,16.40
2012,09,23,13,06,16.40
2012,09,23,13,07,16.40
2012,09,23,13,08,16.40
2012,09,23,13,09,16.50
2012,09,23,13,10,16.60
2012,09,23,13,11,16.40
2012,09,23,13,12,16.40
2012,09,23,13,13,16.40
2012,09,23,13,14,16.40
2012,09,23,13,15,16.40
2012,09,23,13,16,16.30
2012,09,23,13,17,16.20
2012,09,23,13,18,16.10
2012,09,23,13,19,16.10
2012,09,23,13,20,16.10
2012,09,23,13,21,16.10
2012,09,23,13,22,16.10
2012,09,23,13,23,16.10
2012,09,23,13,24,15.90
2012,09,23,13,25,15.90
2012,09,23,13,26,15.80
2012,09,23,13,27,15.80
2012,09,23,13,28,15.80
2012,09,23,13,29,15.80
2012,09,23,13,30,15.70
2012,09,23,13,31,15.70
2012,09,23,13,32,15.80
2012,09,23,13,33,15.80
2012,09,23,13,34,15.80
2012,09,23,13,35,15.80
2012,09,23,13,36,15.80
2012,09,23,13,37,15.80
2012,09,23,13,38,15.90
2012,09,23,13,39,15.90
2012,09,23,13,40,16.00
2012,09,23,13,41,16.10
2012,09,23,13,42,16.10
2012,09,23,13,43,16.10
2012,09,23,13,44,16.10
2012,09,23,13,45,16.20
2012,09,23,13,46,16.20
2012,09,23,13,47,16.30
2012,09,23,13,48,16.40
2012,09,23,13,49,16.40
2012,09,23,13,50,16.40
2012,09,23,13,51,16.40
2012,09,23,13,52,16.50
2012,09,23,13,53,16.60
2012,09,23,13,54,16.60
2012,09,23,13,55,16.60
2012,09,23,13,56,16.60
2012,09,23,13,57,16.50
2012,09,23,13,58,16.40
2012,09,23,13,59,16.30
2012,09,23,14,00,16.30
2012,09,23,14,01,16.40
2012,09,23,14,02,16.40
2012,09,23,14,03,16.50
2012,09,23,14,04,16.60
2012,09,23,14,05,16.60
2012,09,23,14,06,16.70
2012,09,23,14,07,16.70
2012,09,23,14,08,16.70
2012,09,23,14,09,16.70
2012,09,23,14,10,16.70
2012,09,23,14,11,16.70
2012,09,23,14,12,16.70
2012,09,23,14,13,16.70
2012,09,23,14,14,16.70
2012,09,23,14,15,16.70
2012,09,23,14,16,16.80
2012,09,23,14,17,16.80
2012,09,23,14,18,16.80
2012,09,23,14,19,16.80
2012,09,23,14,20,16.90
2012,09,23,14,21,16.90
2012,09,23,14,22,17.00
2012,09,23,14,23,17.00
2012,09,23,14,24,17.10
2012,09,23,14,25,17.20
2012,09,23,14,26,17.30
2012,09,23,14,27,17.30
2012,09,23,14,28,17.40
2012,09,23,14,29,17.50
2012,09,23,14,30,17.60
2012,09,23,14,31,17.60
2012,09,23,14,32,17.70
2012,09,23,14,33,17.70
2012,09,23,14,34,17.60
2012,09,23,14,35,17.60
2012,09,23,14,36,17.60
2012,09,23,14,37,17.60
2012,09,23,14,38,17.60
2012,09,23,14,39,17.70
2012,09,23,14,40,17.70
2012,09,23,14,41,17.80
2012,09,23,14,42,17.80
2012,09,23,14,43,17.80
2012,09,23,14,44,17.80
2012,09,23,14,45,17.80
2012,09,23,14,46,17.80
2012,09,23,14,47,17.80
2012,09,23,14,48,17.80
2012,09,23,14,49,17.80
2012,09,23,14,50,17.80
2012,09,23,14,51,17.80
2012,09,23,14,52,17.80
2012,09,23,14,53,17.70
2012,09,23,14,54,17.60
2012,09,23,14,55,17.50
2012,09,23,14,56,17.60
2012,09,23,14,57,17.60
2012,09,23,14,58,17.70
2012,09,23,14,59,17.70
2012,09,23,15,00,17.80
2012,09,23,15,01,17.90
2012,09,23,15,02,17.90
2012,09,23,15,03,17.90
2012,09,23,15,04,17.90
2012,09,23,15,05,17.90
2012,09,23,15,06,17.90
2012,09,23,15,07,17.90
2012,09,23,15,08,17.80
2012,09,23,15,09,17.70
2012,09,23,15,10,17.60
2012,09,23,15,11,17.60
2012,09,23,15,12,17.60
2012,09,23,15,13,17.70
2012,09,23,15,14,17.80
2012,09,23,15,15,17.90
2012,09,23,15,16,18.00
2012,09,23,15,17,18.10
2012,09,23,15,18,18.10
2012,09,23,15,19,18.10
2012,09,23,15,20,18.20
2012,09,23,15,21,18.20
2012,09,23,15,22,18.30
2012,09,23,15,23,18.40
2012,09,23,15,24,18.50
2012,09,23,15,25,18.60
2012,09,23,15,26,18.70
2012,09,23,15,27,18.80
2012,09,23,15,28,18.90
2012,09,23,15,29,18.90
2012,09,23,15,30,18.90
2012,09,23,15,31,19.00
2012,09,23,15,32,19.10
2012,09,23,15,33,19.10
2012,09,23,15,34,19.10
2012,09,23,15,35,19.10
2012,09,23,15,36,19.10
2012,09,23,15,37,18.90
2012,09,23,15,38,18.80
2012,09,23,15,39,18.70
2012,09,23,15,40,18.60
2012,09,23,15,41,18.60
2012,09,23,15,42,18.50
2012,09,23,15,43,18.40
2012,09,23,15,44,18.20
2012,09,23,15,45,18.20
2012,09,23,15,46,18.10
2012,09,23,15,47,18.00
2012,09,23,15,48,17.90
2012,09,23,15,49,18.00
2012,09,23,15,50,18.10
2012,09,23,15,51,18.10
2012,09,23,15,52,18.00
2012,09,23,15,53,17.90
2012,09,23,15,54,17.90
2012,09,23,15,55,18.00
2012,09,23,15,56,18.10
2012,09,23,15,57,18.20
2012,09,23,15,58,18.20
2012,09,23,15,59,18.20
2012,09,23,16,00,18.30
2012,09,23,16,01,18.50
2012,09,23,16,02,18.60
2012,09,23,16,03,18.70
2012,09,23,16,04,18.90
2012,09,23,16,05,19.00
2012,09,23,16,06,19.10
2012,09,23,16,07,19.10
2012,09,23,16,08,19.00
2012,09,23,16,09,18.90
2012,09,23,16,10,18.80
2012,09,23,16,11,18.70
2012,09,23,16,12,18.70
2012,09,23,16,13,18.70
2012,09,23,16,14,18.60
2012,09,23,16,15,18.50
2012,09,23,16,16,18.40
2012,09,23,16,17,18.40
2012,09,23,16,18,18.40
2012,09,23,16,19,18.40
2012,09,23,16,20,18.40
2012,09,23,16,21,18.40
2012,09,23,16,22,18.50
2012,09,23,16,23,18.50
2012,09,23,16,24,18.50
2012,09,23,16,25,18.50
2012,09,23,16,26,18.50
2012,09,23,16,27,18.50
2012,09,23,16,28,18.50
2012,09,23,16,29,18.50
2012,09,23,16,30,18.40
2012,09,23,16,31,18.50
2012,09,23,16,32,18.50
2012,09,23,16,33,18.50
2012,09,23,16,34,18.60
2012,09,23,16,35,18.50
2012,09,23,16,36,18.50
2012,09,23,16,37,18.50
2012,09,23,16,38,18.50
2012,09,23,16,39,18.50
2012,09,23,16,40,18.30
2012,09,23,16,41,18.30
2012,09,23,16,42,18.30
2012,09,23,16,43,18.40
2012,09,23,16,44,18.40
2012,09,23,16,45,18.50
2012,09,23,16,46,18.40
2012,09,23,16,47,18.40
2012,09,23,16,48,18.40
2012,09,23,16,49,18.40
2012,09,23,16,50,18.50
2012,09,23,16,51,18.50
2012,09,23,16,52,18.50
2012,09,23,16,53,18.50
2012,09,23,16,54,18.40
2012,09,23,16,55,18.30
2012,09,23,16,56,18.40
2012,09,23,16,57,18.40
2012,09,23,16,58,18.40
2012,09,23,16,59,18.30
2012,09,23,17,00,18.20
2012,09,23,17,01,18.10
2012,09,23,17,02,18.00
2012,09,23,17,03,17.90
2012,09,23,17,04,17.90
2012,09,23,17,05,17.90
2012,09,23,17,06,17.90
2012,09,23,17,07,18.00
2012,09,23,17,08,18.10
2012,09,23,17,09,18.20
2012,09,23,17,10,18.20
2012,09,23,17,11,18.30
2012,09,23,17,12,18.30
2012,09,23,17,13,18.30
2012,09,23,17,14,18.30
2012,09,23,17,15,18.30
2012,09,23,17,16,18.20
2012,09,23,17,17,18.20
2012,09,23,17,18,18.20
2012,09,23,17,19,18.20
2012,09,23,17,20,18.20
2012,09,23,17,21,18.20
2012,09,23,17,22,18.20
2012,09,23,17,23,18.20
2012,09,23,17,24,18.20
2012,09,23,17,25,18.20
2012,09,23,17,26,18.20
2012,09,23,17,27,18.30
2012,09,23,17,28,18.30
2012,09,23,17,29,18.30
2012,09,23,17,30,18.30
2012,09,23,17,31,18.30
2012,09,23,17,32,18.30
2012,09,23,17,33,18.30
2012,09,23,17,34,18.30
2012,09,23,17,35,18.30
2012,09,23,17,36,18.20
2012,09,23,17,37,18.20
2012,09,23,17,38,18.00
2012,09,23,17,39,17.90
2012,09,23,17,40,17.90
2012,09,23,17,41,17.80
2012,09,23,17,42,17.70